Location: Br�znic
(45.9167°N, 22.6500°E)
Time: 17:10:43
(UTC+00:00)

SJ-11-01 - Pass Details

Date: 03 March 2021
Orbit: 685 x 700 km, 98.0° (Epoch: 12 April)

Event Time Altitude Azimuth Distance (km) Brightness Sun altitude
Rises 17:16:30 0° 168° (SSE) 3,041 7.5 -10.8°
Reaches altitude 10° 17:18:44 10° 169° (S) 2,132 6.7 -11.2°
Maximum altitude 17:23:24 80° 257° (WSW) 706 4.4 -12.0°
Drops below altitude 10° 17:28:08 10° 345° (NNW) 2,157 7.1 -12.8°
Sets 17:30:24 0° 346° (NNW) 3,081 7.9 -13.2°
